[Date Prev][Date Next][Thread Prev][Thread Next] - [Date Index][Thread Index][Author Index]
2 Line ISS Keps 1-4
- Subject: [sarex] 2 Line ISS Keps 1-4
- From: "Dave Larsen Ph.D." <doc@xxxxxxxxxxx>
- Date: Sat, 4 Jan 2003 01:48:53 -0800
ISS
1 25544U 98067A 03004.14312203 .00020325 00000-0 26707-3 0 5446
2 25544 51.6359 124.2566 0004771 356.9118 63.1985 15.58471417235453
----
Via the sarex mailing list at AMSAT.ORG courtesy of AMSAT-NA.
To unsubscribe, send "unsubscribe sarex" to Majordomo@amsat.org
AMSAT Home